This is the latest recevied weather packets stored in our database for station/object N8BAP. If no packets are shown the sender has not sent any weather packets the latest 10 day(s).
| Time | Temp. | Humidity | Pressure | Rain* | Wind** | Luminosity | Snow |
|---|---|---|---|---|---|---|---|
| 1778106695 | 13.89° C | 56% | 1018.3 hPa | 0 mm | - | 126 W/m² | - |
| 1778106392 | 13.89° C | 56% | 1018.5 hPa | 0 mm | - | 215 W/m² | - |
| 1778106088 | 13.89° C | 57% | 1018.8 hPa | 0 mm | - | 152 W/m² | - |
| 1778105786 | 13.89° C | 56% | 1018.4 hPa | 0 mm | - | 139 W/m² | - |
| 1778105484 | 13.33° C | 59% | 1018.1 hPa | 0 mm | - | 196 W/m² | - |
| 1778105180 | 13.33° C | 57% | 1018.5 hPa | 0 mm | - | 120 W/m² | - |
| 1778104875 | 13.89° C | 56% | 1018.8 hPa | 0 mm | - | 104 W/m² | - |
| 1778104573 | 13.89° C | 57% | 1018.3 hPa | 0 mm | - | 161 W/m² | - |
| 1778104268 | 13.89° C | 57% | 1018.4 hPa | 0 mm | - | 144 W/m² | - |
| 1778103965 | 13.89° C | 59% | 1018 hPa | 0 mm | - | 140 W/m² | - |
| 1778103662 | 13.89° C | 56% | 1018.3 hPa | 0 mm | - | 115 W/m² | - |
| 1778103361 | 13.89° C | 56% | 1017.9 hPa | 0 mm | - | 144 W/m² | - |
| 1778103057 | 13.89° C | 55% | 1018.1 hPa | 0 mm | - | 137 W/m² | - |
| 1778102754 | 14.44° C | 56% | 1017.8 hPa | 0 mm | - | 178 W/m² | - |
| 1778102449 | 14.44° C | 54% | 1017.8 hPa | 0 mm | - | 234 W/m² | - |
| 1778102145 | 14.44° C | 54% | 1017.9 hPa | 0 mm | - | 187 W/m² | - |
| 1778101842 | 15° C | 54% | 1017.8 hPa | 0 mm | - | 189 W/m² | - |
| 1778101539 | 14.44° C | 58% | 1017.7 hPa | 0 mm | - | 216 W/m² | - |
| 1778101236 | 14.44° C | 53% | 1017.6 hPa | 0 mm | - | 242 W/m² | - |
| 1778100932 | 14.44° C | 57% | 1017.6 hPa | 0 mm | - | 303 W/m² | - |
| 1778100627 | 15° C | 52% | 1017.6 hPa | 0 mm | - | 229 W/m² | - |
| 1778100326 | 15° C | 51% | 1017.7 hPa | 0 mm | - | 262 W/m² | - |
| 1778100022 | 15° C | 55% | 1017.8 hPa | 0 mm | - | 246 W/m² | - |
| 1778099721 | 15° C | 52% | 1017.7 hPa | 0 mm | - | 297 W/m² | - |
| 1778099417 | 15° C | 55% | 1017.6 hPa | 0 mm | - | 303 W/m² | - |
* Rain latest hour (hover to see other rain measurements)
** Current wind speed in m/s (hover to see current wind gust speed)